QPF
0.01 0.01 0.02 0.02 0.02 0.01 0.00 0.00 0.00 0.00 0.00 0.00 0.00 0.00 0.00 0.00 0.01 0.02 0.02 0.02 0.02 0.02 0.02 0.03 0.03 0.03 0.03 0.01 0.00 0.00 0.00 0.01 0.01 0.02 0.02 0.02 0.02 0.03 0.02 0.04 0.04 0.03 0.02
0.01 0.01 0.01 0.02 0.02 0.01 0.00 0.01 0.00 0.00 0.00 0.01 0.00 0.01 0.01 0.00 0.00 0.01 0.02 0.02 0.02 0.02 0.03 0.04 0.04 0.03 0.02 0.01 0.01 0.01 0.01 0.01 0.01 0.01 0.02 0.02 0.03 0.02 0.01 0.01 0.01 0.02 0.01
0.01 0.01 0.01 0.02 0.01 0.00 0.00 0.01 0.01 0.01 0.01 0.01 0.01 0.02 0.02 0.01 0.01 0.01 0.02 0.02 0.02 0.02 0.02 0.03 0.04 0.04 0.03 0.02 0.02 0.02 0.01 0.01 0.01 0.01 0.01 0.01 0.02 0.01 0.01 0.01 0.01 0.01 0.02
0.01 0.01 0.02 0.03 0.02 0.02 0.01 0.02 0.02 0.01 0.01 0.02 0.02 0.01 0.01 0.01 0.02 0.02 0.02 0.02 0.02 0.02 0.02 0.02 0.03 0.03 0.04 0.04 0.04 0.03 0.02 0.02 0.01 0.01 0.00 0.01 0.01 0.00 0.01 0.01 0.01 0.01 0.02
0.01 0.01 0.02 0.04 0.04 0.03 0.03 0.02 0.02 0.02 0.02 0.02 0.02 0.01 0.02 0.02 0.03 0.03 0.02 0.02 0.02 0.02 0.02 0.02 0.02 0.03 0.04 0.05 0.04 0.04 0.03 0.03 0.03 0.02 0.01 0.00 0.00 0.00 0.00 0.01 0.01 0.01 0.01
0.00 0.01 0.01 0.02 0.05 0.05 0.03 0.02 0.02 0.02 0.02 0.02 0.03 0.02 0.02 0.03 0.03 0.03 0.03 0.03 0.02 0.02 0.02 0.02 0.01 0.02 0.02 0.04 0.05 0.05 0.05 0.05 0.06 0.05 0.03 0.01 0.00 0.00 0.00 0.00 0.01 0.01 0.01
0.01 0.01 0.01 0.01 0.02 0.03 0.03 0.01 0.01 0.01 0.01 0.02 0.03 0.02 0.02 0.02 0.03 0.05 0.06 0.07 0.06 0.04 0.02 0.01 0.01 0.01 0.01 0.01 0.03 0.04 0.06 0.06 0.07 0.07 0.04 0.02 0.01 0.01 0.00 0.00 0.00 0.00 0.00
0.00 0.00 0.01 0.01 0.01 0.01 0.01 0.01 0.01 0.01 0.01 0.01 0.02 0.02 0.01 0.02 0.02 0.04 0.05 0.07 0.08 0.08 0.06 0.03 0.02 0.01 0.01 0.01 0.01 0.02 0.03 0.06 0.06 0.07 0.06 0.03 0.02 0.02 0.01 0.01 0.01 0.01 0.00
0.00 0.00 0.01 0.01 0.01 0.01 0.01 0.01 0.01 0.01 0.01 0.01 0.02 0.02 0.01 0.02 0.02 0.03 0.04 0.04 0.04 0.04 0.04 0.04 0.03 0.02 0.02 0.01 0.01 0.01 0.02 0.04 0.05 0.05 0.06 0.05 0.03 0.03 0.02 0.01 0.01 0.00 0.00
0.00 0.00 0.00 0.01 0.01 0.01 0.01 0.02 0.02 0.02 0.02 0.02 0.03 0.03 0.02 0.02 0.02 0.02 0.03 0.03 0.03 0.02 0.02 0.02 0.03 0.03 0.03 0.02 0.02 0.02 0.03 0.03 0.04 0.04 0.04 0.03 0.03 0.02 0.01 0.00 0.00 0.00 0.00
0.00 0.00 0.00 0.01 0.01 0.01 0.01 0.01 0.02 0.02 0.02 0.02 0.03 0.03 0.02 0.01 0.02 0.02 0.02 0.02 0.03 0.02 0.02 0.02 0.03 0.03 0.05 0.04 0.03 0.03 0.03 0.03 0.03 0.03 0.03 0.03 0.02 0.01 0.00 0.00 0.00 0.00 0.00
0.00 0.00 0.00 0.01 0.01 0.02 0.03 0.03 0.03 0.02 0.02 0.03 0.03 0.03 0.02 0.02 0.01 0.01 0.02 0.02 0.02 0.02 0.02 0.02 0.02 0.02 0.03 0.04 0.03 0.03 0.03 0.04 0.04 0.04 0.04 0.04 0.02 0.01 0.01 0.00 0.00 0.00 0.00
0.00 0.00 0.01 0.01 0.03 0.03 0.03 0.03 0.03 0.03 0.03 0.02 0.02 0.02 0.02 0.02 0.01 0.01 0.02 0.03 0.03 0.02 0.02 0.01 0.01 0.01 0.02 0.03 0.03 0.03 0.03 0.04 0.05 0.05 0.04 0.04 0.03 0.01 0.01 0.01 0.00 0.00 0.00
0.00 0.00 0.01 0.02 0.05 0.05 0.05 0.06 0.04 0.03 0.03 0.02 0.02 0.02 0.02 0.01 0.02 0.02 0.02 0.02 0.02 0.02 0.02 0.02 0.02 0.02 0.02 0.03 0.03 0.03 0.04 0.04 0.04 0.04 0.03 0.03 0.02 0.01 0.01 0.01 0.01 0.01 0.00
0.01 0.01 0.02 0.02 0.03 0.04 0.04 0.05 0.04 0.03 0.02 0.02 0.01 0.01 0.02 0.02 0.02 0.03 0.03 0.02 0.01 0.01 0.02 0.03 0.03 0.03 0.03 0.02 0.02 0.02 0.02 0.03 0.03 0.03 0.03 0.02 0.02 0.02 0.02 0.02 0.02 0.01 0.01
0.01 0.02 0.02 0.03 0.03 0.02 0.02 0.02 0.02 0.02 0.01 0.01 0.01 0.01 0.02 0.02 0.02 0.02 0.01 0.01 0.01 0.01 0.02 0.02 0.02 0.02 0.02 0.02 0.02 0.02 0.02 0.03 0.04 0.04 0.04 0.03 0.02 0.02 0.02 0.02 0.02 0.02 0.02
0.01 0.01 0.02 0.02 0.03 0.04 0.04 0.02 0.02 0.01 0.01 0.01 0.01 0.01 0.02 0.02 0.01 0.01 0.01 0.01 0.01 0.01 0.01 0.01 0.01 0.02 0.02 0.02 0.02 0.02 0.02 0.03 0.04 0.04 0.04 0.04 0.02 0.01 0.01 0.02 0.02 0.02 0.02
0.01 0.01 0.02 0.02 0.03 0.04 0.07 0.06 0.03 0.01 0.01 0.00 0.01 0.01 0.02 0.01 0.01 0.01 0.01 0.01 0.01 0.01 0.01 0.02 0.01 0.01 0.02 0.03 0.02 0.02 0.03 0.04 0.05 0.04 0.04 0.04 0.03 0.02 0.02 0.02 0.02 0.02 0.02
0.01 0.01 0.01 0.02 0.03 0.03 0.03 0.06 0.05 0.02 0.01 0.01 0.01 0.01 0.01 0.01 0.01 0.01 0.01 0.01 0.02 0.03 0.03 0.03 0.03 0.03 0.02 0.02 0.03 0.03 0.02 0.03 0.05 0.05 0.04 0.04 0.03 0.02 0.03 0.03 0.03 0.02 0.02
0.01 0.01 0.01 0.01 0.02 0.01 0.01 0.02 0.03 0.04 0.02 0.01 0.01 0.01 0.01 0.01 0.01 0.01 0.01 0.02 0.02 0.02 0.02 0.02 0.02 0.02 0.02 0.02 0.02 0.03 0.02 0.02 0.03 0.05 0.05 0.05 0.04 0.03 0.03 0.02 0.01 0.01 0.01
0.01 0.01 0.01 0.01 0.02 0.02 0.01 0.01 0.01 0.02 0.02 0.02 0.01 0.01 0.01 0.01 0.02 0.02 0.01 0.01 0.01 0.01 0.01 0.01 0.01 0.01 0.01 0.01 0.02 0.03 0.02 0.02 0.03 0.04 0.05 0.05 0.06 0.05 0.04 0.02 0.02 0.02 0.03
0.01 0.01 0.01 0.01 0.02 0.02 0.02 0.01 0.01 0.01 0.02 0.02 0.01 0.01 0.01 0.01 0.01 0.01 0.01 0.02 0.02 0.01 0.01 0.00 0.01 0.01 0.01 0.01 0.02 0.03 0.03 0.03 0.02 0.03 0.04 0.04 0.05 0.04 0.04 0.03 0.02 0.03 0.03
0.01 0.01 0.01 0.01 0.01 0.02 0.02 0.02 0.01 0.01 0.01 0.01 0.01 0.01 0.01 0.01 0.01 0.01 0.01 0.01 0.01 0.01 0.01 0.01 0.01 0.02 0.02 0.02 0.02 0.02 0.03 0.03 0.03 0.02 0.03 0.04 0.04 0.03 0.03 0.03 0.02 0.02 0.02
0.01 0.01 0.01 0.01 0.01 0.01 0.01 0.01 0.01 0.01 0.01 0.01 0.01 0.02 0.02 0.01 0.01 0.01 0.02 0.02 0.02 0.02 0.02 0.02 0.02 0.02 0.02 0.02 0.02 0.02 0.03 0.03 0.03 0.03 0.03 0.03 0.03 0.03 0.03 0.02 0.02 0.02 0.01
0.00 0.00 0.00 0.00 0.00 0.00 0.01 0.02 0.01 0.01 0.01 0.01 0.01 0.01 0.01 0.01 0.01 0.01 0.02 0.02 0.02 0.02 0.02 0.02 0.02 0.02 0.02 0.02 0.03 0.03 0.04 0.05 0.05 0.05 0.04 0.04 0.04 0.03 0.02 0.02 0.02 0.01 0.01
0.00 0.00 0.00 0.00 0.00 0.00 0.01 0.02 0.02 0.01 0.01 0.01 0.01 0.01 0.01 0.01 0.01 0.02 0.02 0.02 0.02 0.03 0.03 0.02 0.02 0.02 0.02 0.02 0.03 0.03 0.04 0.05 0.07 0.08 0.07 0.06 0.05 0.05 0.04 0.02 0.02 0.01 0.01
MSLP
1027.77 1027.57 1027.38 1027.21 1027.04 1026.88 1026.72 1026.58 1026.46 1026.37 1026.30 1026.27 1026.24 1026.22 1026.18 1026.10 1025.99 1025.83 1025.65 1025.45 1025.24 1025.05 1024.90 1024.78 1024.71 1024.68 1024.69 1024.72 1024.75 1024.78 1024.80 1024.79 1024.76 1024.70 1024.63 1024.53 1024.43 1024.31 1024.18 1024.03 1023.86 1023.66 1023.43
1028.52 1028.35 1028.19 1028.01 1027.82 1027.60 1027.38 1027.18 1027.01 1026.89 1026.83 1026.81 1026.82 1026.83 1026.81 1026.73 1026.59 1026.39 1026.15 1025.87 1025.60 1025.35 1025.15 1025.01 1024.92 1024.88 1024.88 1024.89 1024.90 1024.91 1024.90 1024.88 1024.85 1024.81 1024.77 1024.74 1024.70 1024.65 1024.59 1024.51 1024.38 1024.22 1024.01
1029.13 1029.00 1028.85 1028.67 1028.46 1028.21 1027.94 1027.70 1027.50 1027.36 1027.30 1027.30 1027.33 1027.37 1027.35 1027.27 1027.11 1026.86 1026.55 1026.21 1025.87 1025.57 1025.32 1025.14 1025.03 1024.97 1024.94 1024.93 1024.92 1024.90 1024.87 1024.84 1024.82 1024.80 1024.81 1024.83 1024.85 1024.87 1024.87 1024.83 1024.75 1024.62 1024.44
1029.60 1029.48 1029.35 1029.18 1028.95 1028.68 1028.39 1028.12 1027.90 1027.76 1027.71 1027.73 1027.77 1027.82 1027.81 1027.72 1027.52 1027.24 1026.87 1026.47 1026.08 1025.72 1025.42 1025.20 1025.06 1024.97 1024.91 1024.87 1024.83 1024.79 1024.75 1024.72 1024.71 1024.72 1024.76 1024.82 1024.90 1024.96 1025.01 1025.01 1024.96 1024.85 1024.69
1029.95 1029.84 1029.72 1029.55 1029.32 1029.04 1028.74 1028.46 1028.24 1028.10 1028.06 1028.08 1028.14 1028.19 1028.18 1028.08 1027.86 1027.53 1027.13 1026.69 1026.24 1025.84 1025.50 1025.25 1025.06 1024.94 1024.85 1024.78 1024.71 1024.65 1024.59 1024.56 1024.55 1024.58 1024.64 1024.74 1024.84 1024.93 1025.00 1025.02 1024.98 1024.89 1024.75
1030.21 1030.11 1030.00 1029.84 1029.61 1029.34 1029.04 1028.76 1028.54 1028.40 1028.36 1028.39 1028.45 1028.50 1028.48 1028.36 1028.13 1027.79 1027.36 1026.89 1026.41 1025.98 1025.61 1025.32 1025.10 1024.93 1024.80 1024.69 1024.59 1024.50 1024.42 1024.38 1024.36 1024.40 1024.46 1024.56 1024.67 1024.77 1024.83 1024.85 1024.82 1024.74 1024.61
1030.44 1030.35 1030.25 1030.10 1029.88 1029.62 1029.32 1029.05 1028.83 1028.70 1028.65 1028.67 1028.73 1028.77 1028.74 1028.62 1028.37 1028.02 1027.59 1027.11 1026.62 1026.17 1025.78 1025.45 1025.20 1024.99 1024.81 1024.66 1024.51 1024.39 1024.28 1024.20 1024.17 1024.18 1024.23 1024.31 1024.40 1024.47 1024.52 1024.53 1024.49 1024.41 1024.31
1030.66 1030.60 1030.52 1030.39 1030.19 1029.93 1029.65 1029.38 1029.16 1029.02 1028.97 1028.97 1029.01 1029.03 1029.00 1028.87 1028.62 1028.28 1027.85 1027.38 1026.90 1026.45 1026.04 1025.69 1025.39 1025.14 1024.91 1024.70 1024.51 1024.33 1024.17 1024.05 1023.98 1023.94 1023.95 1023.98 1024.03 1024.06 1024.08 1024.07 1024.02 1023.96 1023.89
1030.91 1030.88 1030.83 1030.73 1030.56 1030.32 1030.05 1029.79 1029.57 1029.42 1029.34 1029.33 1029.34 1029.34 1029.29 1029.15 1028.91 1028.58 1028.17 1027.72 1027.26 1026.81 1026.40 1026.03 1025.70 1025.40 1025.12 1024.85 1024.59 1024.35 1024.13 1023.95 1023.81 1023.71 1023.65 1023.61 1023.59 1023.58 1023.55 1023.51 1023.47 1023.42 1023.38
1031.17 1031.20 1031.20 1031.14 1030.99 1030.78 1030.53 1030.27 1030.05 1029.89 1029.79 1029.75 1029.73 1029.70 1029.63 1029.49 1029.25 1028.94 1028.56 1028.14 1027.70 1027.27 1026.86 1026.47 1026.11 1025.77 1025.43 1025.10 1024.78 1024.46 1024.17 1023.91 1023.69 1023.51 1023.36 1023.24 1023.15 1023.06 1022.98 1022.92 1022.87 1022.84 1022.85
1031.44 1031.54 1031.60 1031.58 1031.47 1031.29 1031.06 1030.83 1030.61 1030.44 1030.33 1030.25 1030.20 1030.15 1030.05 1029.89 1029.67 1029.37 1029.01 1028.62 1028.21 1027.80 1027.40 1027.01 1026.62 1026.24 1025.85 1025.46 1025.07 1024.68 1024.32 1023.97 1023.66 1023.38 1023.14 1022.93 1022.74 1022.58 1022.44 1022.34 1022.28 1022.27 1022.31
1031.69 1031.86 1031.98 1032.00 1031.94 1031.80 1031.61 1031.40 1031.20 1031.04 1030.91 1030.82 1030.75 1030.66 1030.54 1030.38 1030.15 1029.86 1029.53 1029.17 1028.79 1028.40 1028.01 1027.61 1027.21 1026.80 1026.37 1025.93 1025.47 1025.02 1024.58 1024.15 1023.75 1023.37 1023.03 1022.71 1022.42 1022.17 1021.96 1021.81 1021.72 1021.71 1021.78
1031.89 1032.13 1032.29 1032.37 1032.35 1032.26 1032.12 1031.95 1031.79 1031.64 1031.53 1031.43 1031.34 1031.23 1031.09 1030.92 1030.69 1030.42 1030.11 1029.77 1029.42 1029.05 1028.67 1028.28 1027.87 1027.43 1026.97 1026.48 1025.98 1025.47 1024.96 1024.46 1023.97 1023.50 1023.05 1022.63 1022.23 1021.88 1021.58 1021.36 1021.22 1021.18 1021.25
1032.01 1032.29 1032.50 1032.62 1032.66 1032.62 1032.54 1032.43 1032.32 1032.21 1032.12 1032.03 1031.94 1031.82 1031.68 1031.49 1031.27 1031.01 1030.72 1030.40 1030.08 1029.73 1029.37 1028.98 1028.57 1028.12 1027.63 1027.12 1026.58 1026.02 1025.46 1024.89 1024.33 1023.78 1023.23 1022.70 1022.20 1021.73 1021.33 1021.01 1020.78 1020.68 1020.70
1032.04 1032.35 1032.59 1032.75 1032.84 1032.86 1032.85 1032.81 1032.76 1032.71 1032.66 1032.59 1032.51 1032.40 1032.26 1032.08 1031.86 1031.61 1031.34 1031.05 1030.75 1030.43 1030.08 1029.71 1029.29 1028.84 1028.34 1027.81 1027.24 1026.65 1026.05 1025.43 1024.81 1024.19 1023.56 1022.93 1022.32 1021.74 1021.21 1020.77 1020.43 1020.22 1020.15
1031.98 1032.29 1032.55 1032.75 1032.89 1032.98 1033.04 1033.08 1033.10 1033.11 1033.11 1033.08 1033.02 1032.93 1032.80 1032.63 1032.43 1032.20 1031.96 1031.70 1031.42 1031.12 1030.79 1030.43 1030.02 1029.56 1029.06 1028.51 1027.93 1027.32 1026.69 1026.05 1025.39 1024.71 1024.01 1023.30 1022.59 1021.90 1021.25 1020.67 1020.19 1019.84 1019.64
1031.83 1032.15 1032.42 1032.65 1032.83 1032.99 1033.12 1033.24 1033.33 1033.41 1033.46 1033.47 1033.44 1033.38 1033.26 1033.12 1032.94 1032.74 1032.52 1032.29 1032.05 1031.77 1031.46 1031.11 1030.70 1030.25 1029.74 1029.19 1028.60 1027.98 1027.35 1026.69 1026.01 1025.30 1024.56 1023.80 1023.01 1022.22 1021.45 1020.73 1020.11 1019.61 1019.25
1031.62 1031.94 1032.23 1032.49 1032.72 1032.93 1033.13 1033.31 1033.47 1033.60 1033.69 1033.74 1033.75 1033.71 1033.62 1033.50 1033.35 1033.18 1033.00 1032.81 1032.59 1032.34 1032.05 1031.71 1031.31 1030.85 1030.34 1029.79 1029.20 1028.59 1027.96 1027.31 1026.63 1025.93 1025.18 1024.39 1023.56 1022.70 1021.84 1021.01 1020.25 1019.59 1019.06
1031.37 1031.71 1032.01 1032.31 1032.58 1032.85 1033.10 1033.33 1033.53 1033.70 1033.83 1033.91 1033.93 1033.91 1033.85 1033.75 1033.64 1033.51 1033.36 1033.20 1033.01 1032.79 1032.52 1032.19 1031.79 1031.34 1030.83 1030.28 1029.70 1029.10 1028.49 1027.87 1027.22 1026.55 1025.83 1025.05 1024.22 1023.35 1022.44 1021.53 1020.66 1019.87 1019.19
1031.12 1031.47 1031.81 1032.14 1032.45 1032.76 1033.05 1033.31 1033.55 1033.73 1033.88 1033.96 1034.00 1033.99 1033.95 1033.87 1033.79 1033.69 1033.58 1033.45 1033.29 1033.09 1032.84 1032.52 1032.13 1031.68 1031.18 1030.64 1030.08 1029.50 1028.93 1028.35 1027.76 1027.15 1026.49 1025.77 1024.98 1024.13 1023.23 1022.29 1021.37 1020.48 1019.67
1030.86 1031.25 1031.62 1031.99 1032.34 1032.68 1032.99 1033.28 1033.52 1033.71 1033.84 1033.93 1033.96 1033.96 1033.92 1033.87 1033.81 1033.73 1033.65 1033.55 1033.42 1033.24 1033.00 1032.69 1032.32 1031.88 1031.39 1030.86 1030.33 1029.79 1029.27 1028.75 1028.24 1027.70 1027.13 1026.51 1025.81 1025.03 1024.18 1023.27 1022.33 1021.40 1020.51
1030.59 1031.02 1031.44 1031.84 1032.23 1032.59 1032.92 1033.20 1033.44 1033.62 1033.74 1033.82 1033.84 1033.84 1033.81 1033.76 1033.72 1033.67 1033.61 1033.53 1033.42 1033.25 1033.03 1032.74 1032.37 1031.94 1031.47 1030.98 1030.48 1029.99 1029.52 1029.07 1028.64 1028.21 1027.75 1027.23 1026.65 1025.98 1025.22 1024.39 1023.49 1022.57 1021.65
1030.31 1030.77 1031.23 1031.66 1032.07 1032.45 1032.79 1033.07 1033.30 1033.47 1033.58 1033.64 1033.66 1033.65 1033.63 1033.59 1033.56 1033.52 1033.48 1033.41 1033.32 1033.17 1032.95 1032.67 1032.33 1031.92 1031.48 1031.01 1030.55 1030.11 1029.71 1029.34 1028.99 1028.66 1028.30 1027.91 1027.46 1026.92 1026.28 1025.55 1024.74 1023.88 1022.97
1029.97 1030.46 1030.95 1031.41 1031.84 1032.23 1032.57 1032.86 1033.08 1033.25 1033.35 1033.41 1033.44 1033.43 1033.41 1033.39 1033.37 1033.35 1033.31 1033.25 1033.16 1033.02 1032.82 1032.56 1032.23 1031.85 1031.44 1031.01 1030.60 1030.21 1029.86 1029.55 1029.28 1029.03 1028.78 1028.50 1028.17 1027.76 1027.25 1026.65 1025.95 1025.18 1024.34
1029.56 1030.07 1030.57 1031.04 1031.49 1031.89 1032.24 1032.53 1032.77 1032.94 1033.06 1033.14 1033.18 1033.20 1033.20 1033.20 1033.19 1033.18 1033.15 1033.09 1033.01 1032.87 1032.68 1032.43 1032.12 1031.77 1031.39 1031.01 1030.64 1030.29 1029.99 1029.74 1029.52 1029.34 1029.16 1028.97 1028.74 1028.44 1028.06 1027.58 1027.01 1026.35 1025.60
1029.07 1029.57 1030.07 1030.55 1031.00 1031.41 1031.78 1032.09 1032.35 1032.56 1032.71 1032.83 1032.91 1032.97 1033.01 1033.03 1033.04 1033.04 1033.02 1032.97 1032.88 1032.75 1032.56 1032.33 1032.04 1031.72 1031.38 1031.03 1030.69 1030.38 1030.11 1029.89 1029.71 1029.56 1029.42 1029.29 1029.13 1028.92 1028.64 1028.28 1027.83 1027.29 1026.65
Thickness
5700 5700 5700 5700 5698 5697 5696 5695 5694 5693 5692 5691 5689 5688 5687 5687 5687 5688 5687 5687 5687 5686 5685 5684 5683 5682 5682 5681 5681 5680 5678 5676 5677 5675 5672 5672 5673 5673 5673 5673 5673 5674 5674
5695 5696 5696 5695 5694 5692 5692 5691 5690 5689 5688 5687 5685 5683 5682 5682 5681 5681 5682 5682 5681 5681 5680 5679 5678 5677 5677 5676 5675 5675 5673 5672 5671 5669 5666 5663 5664 5666 5667 5666 5666 5666 5667
5693 5692 5692 5691 5690 5688 5688 5688 5686 5686 5684 5683 5681 5679 5678 5677 5676 5675 5675 5675 5675 5675 5675 5674 5673 5672 5672 5670 5670 5670 5669 5667 5666 5665 5663 5659 5655 5655 5658 5658 5659 5659 5660
5692 5691 5690 5688 5687 5686 5685 5684 5683 5682 5681 5679 5677 5675 5671 5669 5668 5668 5668 5669 5670 5670 5669 5669 5668 5667 5667 5666 5666 5666 5665 5664 5662 5660 5659 5658 5656 5651 5649 5650 5651 5652 5653
5691 5690 5689 5687 5686 5684 5682 5680 5679 5678 5677 5675 5673 5671 5668 5666 5664 5664 5664 5665 5665 5665 5664 5664 5663 5662 5661 5661 5661 5661 5661 5660 5658 5657 5654 5652 5650 5648 5645 5642 5643 5644 5645
5690 5689 5687 5685 5682 5681 5679 5677 5675 5673 5672 5671 5669 5667 5664 5662 5660 5660 5659 5659 5659 5659 5659 5659 5658 5657 5656 5656 5656 5656 5656 5655 5654 5653 5651 5649 5647 5643 5640 5638 5636 5636 5638
5687 5684 5682 5680 5679 5677 5675 5673 5671 5669 5668 5666 5664 5663 5661 5659 5658 5656 5655 5654 5654 5654 5654 5653 5652 5652 5651 5651 5652 5651 5651 5651 5650 5649 5648 5646 5644 5642 5638 5635 5631 5630 5631
5684 5682 5680 5678 5676 5674 5672 5670 5667 5665 5663 5662 5660 5658 5657 5655 5654 5653 5651 5650 5649 5649 5649 5648 5648 5647 5647 5647 5646 5646 5646 5646 5645 5645 5643 5641 5640 5638 5636 5632 5628 5626 5625
5681 5679 5677 5675 5673 5670 5669 5667 5664 5661 5660 5658 5656 5653 5652 5651 5650 5648 5647 5646 5646 5645 5644 5643 5642 5642 5641 5641 5641 5640 5640 5640 5640 5639 5638 5637 5635 5633 5632 5630 5628 5624 5620
5677 5675 5673 5671 5670 5668 5665 5663 5660 5658 5656 5653 5651 5650 5647 5646 5645 5644 5642 5641 5641 5640 5639 5638 5637 5636 5635 5635 5634 5634 5635 5634 5634 5633 5633 5631 5630 5628 5627 5626 5624 5622 5619
5673 5671 5669 5668 5666 5663 5660 5658 5655 5653 5650 5648 5646 5644 5642 5641 5640 5638 5637 5636 5635 5634 5633 5632 5631 5630 5629 5628 5628 5628 5628 5628 5628 5628 5627 5626 5625 5623 5621 5620 5619 5617 5615
5668 5666 5664 5662 5659 5657 5655 5652 5650 5648 5645 5643 5641 5639 5637 5635 5634 5633 5632 5631 5629 5628 5627 5626 5625 5624 5623 5622 5622 5622 5622 5622 5622 5621 5621 5620 5620 5617 5616 5615 5614 5612 5611
5662 5659 5657 5655 5653 5651 5649 5647 5645 5642 5640 5637 5635 5633 5631 5630 5628 5627 5626 5625 5624 5622 5621 5620 5619 5618 5617 5617 5617 5617 5616 5616 5616 5616 5615 5615 5614 5612 5611 5610 5608 5607 5607
5654 5652 5650 5649 5648 5646 5644 5642 5639 5637 5635 5632 5630 5627 5625 5624 5623 5622 5620 5619 5617 5616 5614 5613 5613 5612 5612 5612 5611 5611 5611 5611 5611 5611 5610 5609 5609 5608 5606 5605 5603 5602 5600
5647 5646 5644 5643 5641 5640 5638 5635 5633 5631 5629 5627 5624 5622 5620 5618 5617 5616 5614 5613 5611 5610 5608 5607 5606 5605 5605 5606 5606 5606 5605 5604 5604 5604 5605 5604 5604 5604 5603 5602 5599 5597 5594
5641 5640 5639 5638 5636 5634 5632 5629 5627 5625 5623 5621 5618 5616 5614 5613 5611 5610 5608 5606 5605 5603 5601 5600 5599 5599 5599 5600 5601 5600 5599 5598 5598 5598 5598 5598 5599 5599 5598 5598 5597 5595 5592
5635 5634 5633 5632 5631 5629 5627 5624 5622 5619 5616 5614 5612 5611 5609 5607 5605 5604 5601 5599 5597 5595 5594 5593 5592 5592 5592 5594 5594 5594 5593 5592 5592 5591 5591 5592 5593 5593 5592 5592 5591 5591 5590
5628 5628 5627 5626 5625 5624 5622 5620 5617 5614 5611 5608 5605 5604 5603 5601 5599 5597 5595 5593 5591 5589 5587 5586 5585 5585 5586 5586 5587 5587 5586 5585 5585 5585 5586 5585 5586 5586 5586 5586 5585 5584 5584
5624 5624 5623 5621 5619 5618 5616 5614 5610 5607 5605 5603 5601 5599 5597 5595 5593 5591 5589 5587 5585 5583 5581 5581 5580 5579 5579 5580 5580 5580 5579 5578 5578 5579 5579 5579 5579 5581 5581 5580 5579 5578 5579
5618 5618 5617 5615 5612 5609 5608 5606 5603 5600 5599 5598 5596 5594 5592 5589 5587 5585 5583 5581 5579 5578 5576 5575 5574 5573 5573 5574 5574 5573 5572 5571 5571 5572 5573 5574 5575 5575 5575 5573 5572 5572 5572
5612 5611 5609 5607 5604 5602 5600 5598 5595 5594 5593 5592 5590 5588 5586 5584 5582 5579 5577 5575 5573 5571 5570 5568 5568 5567 5567 5567 5567 5566 5564 5564 5564 5564 5565 5567 5568 5569 5569 5568 5567 5568 5568
5604 5603 5600 5598 5596 5594 5592 5590 5588 5588 5586 5585 5583 5581 5579 5578 5576 5572 5570 5568 5566 5564 5562 5561 5561 5560 5560 5560 5560 5560 5560 5559 5557 5557 5558 5559 5561 5561 5562 5562 5562 5562 5561
5596 5594 5592 5589 5587 5586 5585 5583 5581 5580 5579 5577 5575 5574 5572 5570 5568 5566 5563 5561 5559 5557 5556 5555 5554 5554 5553 5553 5553 5553 5553 5553 5551 5551 5552 5553 5554 5554 5553 5554 5555 5554 5552
5586 5585 5582 5580 5578 5577 5576 5575 5574 5573 5571 5569 5567 5566 5564 5562 5560 5559 5557 5555 5553 5551 5551 5549 5548 5548 5547 5546 5546 5546 5545 5545 5545 5544 5544 5545 5545 5545 5545 5546 5545 5545 5544
5577 5575 5574 5572 5570 5568 5567 5566 5565 5564 5562 5561 5559 5557 5555 5554 5552 5551 5550 5549 5548 5547 5545 5544 5543 5541 5541 5541 5541 5539 5538 5537 5537 5535 5534 5534 5534 5535 5535 5536 5536 5536 5536
5567 5566 5564 5563 5561 5561 5559 5558 5558 5556 5554 5552 5550 5548 5546 5545 5544 5542 5542 5542 5542 5541 5540 5539 5537 5536 5536 5535 5534 5533 5532 5531 5529 5527 5526 5525 5525 5526 5527 5527 5528 5528 5528